This is the latest recevied weather packets stored in our database for station/object K4ZZR. If no packets are shown the sender has not sent any weather packets the latest 10 day(s).
| Time | Temp. | Humidity | Pressure | Rain* | Wind** | Luminosity | Snow |
|---|---|---|---|---|---|---|---|
| 1777955891 | 23.33° C | 83% | 1015 hPa | 0 mm | - | 0 W/m² | - |
| 1777955588 | 23.33° C | 82% | 1014.9 hPa | 0 mm | - | 0 W/m² | - |
| 1777955284 | 23.33° C | 83% | 1015 hPa | 0 mm | - | 0 W/m² | - |
| 1777954981 | 23.33° C | 83% | 1015.1 hPa | 0 mm | - | 0 W/m² | - |
| 1777954678 | 23.33° C | 82% | 1015 hPa | 0 mm | - | 0 W/m² | - |
| 1777954375 | 23.33° C | 82% | 1015 hPa | 0 mm | - | 0 W/m² | - |
| 1777954073 | 23.33° C | 81% | 1015 hPa | 0 mm | - | 0 W/m² | - |
| 1777953770 | 23.33° C | 82% | 1015.1 hPa | 0 mm | - | 0 W/m² | - |
| 1777953467 | 23.33° C | 81% | 1015.1 hPa | 0 mm | - | 0 W/m² | - |
| 1777943767 | 23.89° C | 81% | 1014.7 hPa | 0 mm | - | 0 W/m² | - |
| 1777943159 | 23.89° C | 80% | 1014.9 hPa | 0 mm | - | 0 W/m² | - |
| 1777942856 | 23.89° C | 79% | 1014.7 hPa | 0 mm | - | 0 W/m² | - |
| 1777942250 | 23.89° C | 79% | 1014.7 hPa | 0 mm | - | 0 W/m² | - |
| 1777941341 | 23.89° C | 80% | 1014.7 hPa | 0 mm | - | 0 W/m² | - |
| 1777940432 | 23.33° C | 80% | 1014.5 hPa | 0 mm | - | 0 W/m² | - |
| 1777940129 | 23.33° C | 81% | 1014.4 hPa | 0 mm | - | 0 W/m² | - |
| 1777939826 | 23.33° C | 81% | 1014.3 hPa | 0 mm | - | 0 W/m² | - |
| 1777939221 | 23.33° C | 80% | 1014.3 hPa | 0 mm | - | 2 W/m² | - |
| 1777934673 | 23.89° C | 80% | 1014.1 hPa | 0 mm | - | 82 W/m² | - |
| 1777934066 | 23.89° C | 80% | 1013.9 hPa | 0 mm | - | 125 W/m² | - |
| 1777933158 | 23.89° C | 79% | 1013.8 hPa | 0 mm | - | 139 W/m² | - |
| 1777932854 | 23.89° C | 79% | 1013.7 hPa | 0 mm | - | 149 W/m² | - |
| 1777932551 | 23.89° C | 80% | 1013.8 hPa | 0 mm | - | 132 W/m² | - |
| 1777930731 | 24.44° C | 80% | 1014.3 hPa | 0 mm | - | 145 W/m² | - |
| 1777930427 | 23.89° C | 79% | 1014.3 hPa | 0 mm | - | 105 W/m² | - |
* Rain latest hour (hover to see other rain measurements)
** Current wind speed in m/s (hover to see current wind gust speed)